Location: Ocean City
(38.3360°N, 75.0850°W)
Time: 22:40:58
(UTC-05:00)

Explorer 11/Cluster Stage 4 - Pass Details

Date: 23 November 2019
Orbit: 467 x 1259 km, 28.8° (Epoch: 05 December)

Event Time Altitude Azimuth Distance (km) Brightness Sun altitude
Rises 17:26:30 0° 220° (SW) 2,650 10.4 -8.7°
Reaches altitude 10° 17:29:18 10° 198° (SSW) 1,867 9.1 -9.2°
Maximum altitude 17:31:58 16° 159° (SSE) 1,620 8.2 -9.7°
Drops below altitude 10° 17:34:58 10° 121° (ESE) 2,128 8.4 -10.3°
Enters shadow 17:36:17 - 112° (ESE) 2,510 8.7 -10.5°
Sets 17:38:29 0° 101° (ESE) 3,232 - -10.9°
